Weather History for Williamtown, NW

Change the Weather History Date:

Sunday, November 25, 2012

  Actual Average Record
Temperature  
Mean Temperature 76 °F -  
Max Temperature 95 °F - - ()
Min Temperature 58 °F - - ()
Cooling Degree Days 12    
Growing Degree Days 26 (Base 50)    
Moisture  
Dew Point 61 °F    
Average Humidity 62    
Maximum Humidity 94    
Minimum Humidity 21    
Precipitation  
Precipitation 0.20 in - - ()
Sea Level Pressure  
Sea Level Pressure 29.92 in    
Wind  
Wind Speed 6 mph ()    
Max Wind Speed 15 mph    
Max Gust Speed -    
Visibility 6.1 miles    
Events Rain    
T = Trace of Precipitation, MM = Missing Value Source: Averaged Metar Reports

Daily Weather History Graph

Daily Weather History Graph

Search for Another Location

Airport:

Trip Planner

Search our weather history database for the weather conditions in past years. The results will help you decide how hot, cold, wet, or windy it might be!

Date:

Astronomy

Nov. 25, 2012 Rise Set
Actual Time 5:38 AM AEDT 7:40 PM AEDT
Civil Twilight 5:11 AM AEDT 8:08 PM AEDT
Nautical Twilight 4:37 AM AEDT 8:42 PM AEDT
Astronomical Twilight 4:01 AM AEDT 9:18 PM AEDT
Moon 4:44 PM AEDT (11/25) 3:17 AM AEDT (11/25)
Length of Visible Light 14h 57m
Length of Day
14h 02m
Waxing Gibbous, 89% of the Moon is Illuminated
Nov 25
Waxing Gibbous
Nov 29
Full
Dec 7
Last Quarter
Dec 13
New
Dec 20
First Quarter

Hourly Weather History & Observations

Time (AEDT) Temp. Heat Index Dew Point Humidity Pressure Visibility Wind Dir Wind Speed Gust Speed Precip Events Conditions
12:00 AM 67 °F - 65 °F 90% 29.94 in - NE 4.6 mph - -  
12:00 AM 66.2 °F - 64.4 °F 94% 29.92 in 6.2 mi NE 4.6 mph - N/A   Unknown
12:30 AM 66.2 °F - 64.4 °F 94% 29.92 in 6.2 mi NNE 3.5 mph - N/A   Unknown
1:00 AM 64.4 °F - 62.6 °F 94% 29.92 in 6.2 mi NNE 2.3 mph - N/A   Scattered Clouds
1:30 AM 66.2 °F - 62.6 °F 88% 29.92 in 6.2 mi NE 5.8 mph - N/A   Mostly Cloudy
2:00 AM 66 °F - 61 °F 80% 29.92 in - North 1.2 mph - -  
2:00 AM 66.2 °F - 60.8 °F 83% 29.92 in 6.2 mi North 1.2 mph - N/A   Scattered Clouds
2:30 AM 64.4 °F - 60.8 °F 88% 29.92 in 6.2 mi North 4.6 mph - N/A   Unknown
3:00 AM 63 °F - 60 °F 86% 29.91 in - NNE 3.5 mph - -  
3:00 AM 62.6 °F - 60.8 °F 94% 29.89 in 6.2 mi NNE 3.5 mph - N/A   Unknown
3:30 AM 62.6 °F - 59.0 °F 88% 29.89 in 6.2 mi NE 4.6 mph - N/A   Unknown
4:00 AM 60.8 °F - 59.0 °F 94% 29.89 in 6.2 mi North 3.5 mph - N/A   Unknown
4:30 AM 60.8 °F - 59.0 °F 94% 29.89 in 6.2 mi NNE 4.6 mph - N/A   Unknown
5:00 AM 59 °F - 57 °F 91% 29.92 in - Calm Calm - -  
5:00 AM 59.0 °F - 57.2 °F 94% 29.92 in 6.2 mi Calm Calm - N/A   Unknown
5:30 AM 59.0 °F - 57.2 °F 94% 29.92 in 6.2 mi Calm Calm - N/A   Unknown
6:00 AM 59 °F - 58 °F 93% 29.94 in - WNW 3.5 mph - -  
6:00 AM 59.0 °F - 57.2 °F 94% 29.92 in 6.2 mi WNW 3.5 mph - N/A   Unknown
6:30 AM 60.8 °F - 59.0 °F 94% 29.95 in 6.2 mi WNW 1.2 mph - N/A   Unknown
7:00 AM 66.2 °F - 60.8 °F 83% 29.95 in 6.2 mi NNE 3.5 mph - N/A   Unknown
7:30 AM 71.6 °F - 60.8 °F 69% 29.95 in 6.2 mi NNW 8.1 mph - N/A   Unknown
8:00 AM 74 °F - 61 °F 56% 29.96 in - NW 8.1 mph - -  
8:00 AM 73.4 °F - 60.8 °F 65% 29.95 in 6.2 mi NW 8.1 mph - N/A   Unknown
8:30 AM 77.0 °F - 60.8 °F 57% 29.95 in 6.2 mi NNW 6.9 mph - N/A   Unknown
9:00 AM 80 °F - 60 °F 41% 29.96 in - NW 8.1 mph - -  
9:00 AM 78.8 °F - 60.8 °F 54% 29.95 in 6.2 mi NW 8.1 mph - N/A   Unknown
9:30 AM 82.4 °F 82.9 °F 60.8 °F 48% 29.95 in 6.2 mi NW 8.1 mph - N/A   Unknown
10:00 AM 84.2 °F 84.4 °F 60.8 °F 45% 29.95 in 6.2 mi NNW 9.2 mph - N/A   Unknown
10:30 AM 87.8 °F 87.1 °F 59.0 °F 38% 29.95 in 6.2 mi WNW 15.0 mph - N/A   Unknown
11:00 AM 90 °F - 59 °F 25% 29.95 in - NW 12.7 mph - -  
11:00 AM 89.6 °F 88.9 °F 59.0 °F 36% 29.95 in 6.2 mi NW 12.7 mph - N/A   Unknown
11:30 AM 93.2 °F 92.6 °F 59.0 °F 32% 29.92 in 6.2 mi West 12.7 mph - N/A   Unknown
12:00 PM 94 °F - 58 °F 21% 29.93 in - NW 12.7 mph - -  
12:00 PM 95.0 °F 94.4 °F 59.0 °F 30% 29.92 in 6.2 mi NW 12.7 mph - N/A   Unknown
12:30 PM 93.2 °F 91.9 °F 57.2 °F 30% 29.89 in 6.2 mi NW 10.4 mph - N/A   Unknown
1:00 PM 93.2 °F 91.3 °F 55.4 °F 28% 29.89 in 6.2 mi WNW 8.1 mph - N/A   Scattered Clouds
1:30 PM 93.2 °F 92.6 °F 59.0 °F 32% 29.89 in 6.2 mi SE 13.8 mph - N/A   Scattered Clouds
2:00 PM 85 °F - 60 °F 32% 29.91 in - SE 15.0 mph - -  
2:00 PM 86.0 °F 85.4 °F 59.0 °F 40% 29.89 in 6.2 mi SE 15.0 mph - N/A   Mostly Cloudy
2:23 PM 77.0 °F - 64.4 °F 65% 29.89 in 4.3 mi ENE 13.8 mph - N/A Rain Heavy Rain Showers
2:24 PM 77.0 °F - 64.4 °F 65% 29.89 in 3.7 mi ENE 13.8 mph - N/A Rain Heavy Rain Showers
2:30 PM 77.0 °F - 66.2 °F 69% 29.89 in 4.3 mi ENE 12.7 mph - N/A Rain Heavy Rain Showers
2:39 PM 78.8 °F - 66.2 °F 65% 29.89 in 6.2 mi ENE 9.2 mph - N/A Rain Rain Showers
3:00 PM 81 °F - 68 °F 57% 29.89 in - East 12.7 mph - -  
3:00 PM 80.6 °F 83.2 °F 68.0 °F 65% 29.89 in 6.2 mi East 12.7 mph - N/A   Unknown
3:30 PM 84.2 °F 85.6 °F 64.4 °F 51% 29.89 in 6.2 mi ENE 10.4 mph - N/A   Unknown
4:00 PM 86.0 °F 86.1 °F 60.8 °F 43% 29.89 in 6.2 mi ENE 9.2 mph - N/A   Unknown
4:30 PM 87.8 °F 87.6 °F 60.8 °F 40% 29.89 in 6.2 mi NE 10.4 mph - N/A   Unknown
5:00 PM 87 °F - 61 °F 31% 29.88 in - ENE 12.7 mph - -  
5:00 PM 87.8 °F 87.6 °F 60.8 °F 40% 29.86 in 6.2 mi ENE 12.7 mph - N/A   Unknown
5:30 PM 87.8 °F 88.5 °F 62.6 °F 43% 29.89 in 6.2 mi NE 12.7 mph - N/A   Unknown
6:00 PM 87 °F - 62 °F 33% 29.90 in - ENE 12.7 mph - -  
6:00 PM 86.0 °F 86.6 °F 62.6 °F 45% 29.89 in 6.2 mi NE 12.7 mph - N/A   Unknown
6:30 PM 86.0 °F 86.6 °F 62.6 °F 45% 29.89 in 6.2 mi ENE 10.4 mph - N/A   Unknown
7:00 PM 84.2 °F 83.8 °F 59.0 °F 42% 29.92 in 6.2 mi NNE 11.5 mph - N/A   Unknown
7:30 PM 82.4 °F 82.5 °F 59.0 °F 45% 29.92 in 6.2 mi NE 6.9 mph - N/A   Unknown
8:00 PM 79 °F - 61 °F 44% 29.94 in - NE 5.8 mph - -  
8:00 PM 78.8 °F - 60.8 °F 54% 29.92 in 6.2 mi NE 5.8 mph - N/A   Unknown
8:30 PM 77.0 °F - 60.8 °F 57% 29.92 in 6.2 mi NE 4.6 mph - N/A   Unknown
9:00 PM 76 °F - 62 °F 52% 29.95 in - NE 4.6 mph - -  
9:00 PM 75.2 °F - 60.8 °F 61% 29.95 in 6.2 mi NE 4.6 mph - N/A   Unknown
9:30 PM 75.2 °F - 64.4 °F 69% 29.95 in 6.2 mi ENE 5.8 mph - N/A   Unknown
10:00 PM 73.4 °F - 64.4 °F 73% 29.95 in 6.2 mi East 6.9 mph - N/A   Unknown
10:30 PM 71.6 °F - 64.4 °F 78% 29.95 in 6.2 mi Calm Calm - N/A   Unknown
11:00 PM 69 °F - 64 °F 79% 29.96 in - Calm Calm - -  
11:00 PM 69.8 °F - 64.4 °F 83% 29.95 in 6.2 mi Calm Calm - N/A   Unknown
11:30 PM 69.8 °F - 66.2 °F 88% 29.95 in 6.2 mi ENE 4.6 mph - N/A   Unknown